Location: Bakov nad Jizerou
(50.4784°N, 14.9394°E)
Time: 17:12:15
(UTC+00:00)

Cosmos 2322 - Pass Details

Date: 26 October 2021
Orbit: 841 x 854 km, 71.0° (Epoch: 04 December)

Event Time Altitude Azimuth Distance (km) Brightness Sun altitude
Exits shadow 01:42:00 18° 6° (N) 1,964 5.9 -37.6°
Maximum altitude 01:44:18 23° 39° (NE) 1,734 5.8 -37.3°
Drops below altitude 10° 01:48:45 10° 91° (E) 2,475 6.7 -36.7°
Sets 01:51:43 0° 105° (ESE) 3,405 7.4 -36.3°
